This is the latest recevied weather packets stored in our database for station/object VK7TM-1. If no packets are shown the sender has not sent any weather packets the latest 10 day(s).
| Time | Temp. | Humidity | Pressure | Rain* | Wind** | Luminosity | Snow |
|---|---|---|---|---|---|---|---|
| 1778366901 | 14.44° C | 68% | 1031.3 hPa | 0 mm | - | 29 W/m² | - |
| 1778366611 | 14.44° C | 67% | 1031 hPa | 0 mm | - | 28 W/m² | - |
| 1778366321 | 13.89° C | 68% | 1030.9 hPa | 0 mm | - | 32 W/m² | - |
| 1778366031 | 13.89° C | 69% | 1031 hPa | 0 mm | - | 29 W/m² | - |
| 1778365741 | 13.89° C | 67% | 1031 hPa | 0 mm | - | 27 W/m² | - |
| 1778365451 | 14.44° C | 66% | 1030.9 hPa | 0 mm | - | 25 W/m² | - |
| 1778365161 | 14.44° C | 65% | 1030.9 hPa | 0 mm | - | 24 W/m² | - |
| 1778364871 | 14.44° C | 64% | 1030.7 hPa | 0 mm | - | 24 W/m² | - |
| 1778364581 | 14.44° C | 65% | 1030.7 hPa | 0 mm | - | 23 W/m² | - |
| 1778364291 | 14.44° C | 63% | 1030.5 hPa | 0 mm | - | 22 W/m² | - |
| 1778364001 | 15° C | 63% | 1030.5 hPa | 0 mm | - | 28 W/m² | - |
| 1778363729 | 14.44° C | 62% | 1030.3 hPa | 0 mm | - | 29 W/m² | - |
| 1778363421 | 14.44° C | 63% | 1030.3 hPa | 0 mm | - | 26 W/m² | - |
| 1778363131 | 14.44° C | 63% | 1030.2 hPa | 0 mm | - | 22 W/m² | - |
| 1778362841 | 14.44° C | 64% | 1030 hPa | 0 mm | - | 19 W/m² | - |
| 1778362551 | 13.89° C | 64% | 1030.1 hPa | 0 mm | - | 15 W/m² | - |
| 1778362261 | 13.89° C | 64% | 1030 hPa | 0 mm | - | 12 W/m² | - |
| 1778361971 | 13.89° C | 64% | 1030.1 hPa | 0 mm | - | 9 W/m² | - |
| 1778361681 | 13.89° C | 64% | 1029.9 hPa | 0 mm | - | 6 W/m² | - |
| 1778361391 | 13.33° C | 65% | 1029.8 hPa | 0 mm | - | 4 W/m² | - |
| 1778361101 | 13.33° C | 65% | 1029.7 hPa | 0 mm | - | 2 W/m² | - |
| 1778360811 | 13.33° C | 65% | 1029.7 hPa | 0 mm | - | 1 W/m² | - |
| 1778360521 | 13.33° C | 66% | 1029.6 hPa | 0 mm | - | 0 W/m² | - |
| 1778360231 | 13.33° C | 66% | 1029.5 hPa | 0 mm | - | 0 W/m² | - |
| 1778359941 | 13.33° C | 66% | 1029.5 hPa | 0 mm | - | 0 W/m² | - |
* Rain latest hour (hover to see other rain measurements)
** Current wind speed in m/s (hover to see current wind gust speed)